Location: Clanezzo
(45.7500°N, 9.6000°E)
Time: 02:15:19
(UTC+00:00)

Cosmos 1486 Rocket - Pass Details

Date: 12 May 2021
Orbit: 759 x 783 km, 74.1° (Epoch: 18 June)

Event Time Altitude Azimuth Distance (km) Brightness Sun altitude
Rises 19:15:00 0° 205° (SSW) 3,253 7.2 -5.6°
Reaches altitude 10° 19:17:23 10° 207° (SSW) 2,331 6.4 -6.0°
Maximum altitude 19:22:41 73° 292° (WNW) 820 4.4 -6.7°
Drops below altitude 10° 19:28:01 10° 18° (NNE) 2,349 6.8 -7.5°
Sets 19:30:26 0° 21° (NNE) 3,280 7.5 -7.8°
